Skip Page Navigation
NASA JPL Caltech
NASA Logo - Jet Propulsion Laboratory + View the NASA Portal
+ Center for Near-Earth Object Studies
JPL Home Earth Solar System Stars & Galaxies Technology
JPL Solar System Dynamics
BODIES ORBITS EPHEMERIDES TOOLS PHYSICAL DATA DISCOVERY FAQ SITE MAP
IMPORTANT: The SSD Announcement email list is now available. Major changes are coming in the near future, including possible hostname and/or URL changes. To be notified of such changes, subscribe to this email list.

Please visit this page for more details.


JPL Small-Body Database Browser
Search: [ help ]  
379252 (2009 TA38)
Classification: Main-belt Asteroid          SPK-ID: 2379252
Ephemeris | Orbit Diagram | Orbital Elements | Mission Design | Physical Parameters | Discovery Circumstances | Close-Approach Data ]

[ show orbit diagram ]
Orbital Elements at Epoch 2459000.5 (2020-May-31.0) TDB
Reference: JPL 10 (heliocentric ecliptic J2000)
 Element Value Uncertainty (1-sigma)   Units 
e .2816327662322797 4.1645e-07  
a 2.480636193565305 7.5706e-08 au
q 1.782007760355595 9.8038e-07 au
i 6.547434916166291 1.7763e-05 deg
node 243.403997935497 5.7194e-05 deg
peri 133.3471955273525 0.00010847 deg
M 266.1723528859249 0.000108 deg
tp 2459372.438697467590
(2021-Jun-06.93869747)
0.00044493 TDB
period 1427.06265377773
3.91
6.5328e-05
1.789e-07
d
yr
n .2522664292608355 1.1548e-08 deg/d
Q 3.179264626775015 9.7027e-08 au
  Orbit Determination Parameters
   # obs. used (total)      116  
   data-arc span      5916 days (16.20 yr)  
   first obs. used      2001-10-15  
   last obs. used      2017-12-26  
   planetary ephem.      DE431  
   SB-pert. ephem.      SB431-N16  
   condition code      0  
   norm. resid. RMS      .58325  
   source      ORB  
   producer      Otto Matic  
   solution date      2019-Jul-14 12:40:14  

Additional Information
 Earth MOID = .7918 au 
 Jupiter MOID = 2.32101 au 
 T_jup = 3.414 
[ show covariance matrix ]

Ephemeris | Orbit Diagram | Orbital Elements | Mission Design | Physical Parameters | Discovery Circumstances | Close-Approach Data ]

Physical Parameter Table
Parameter Symbol Value Units Sigma Reference Notes
absolute magnitude H 17.7   n/a MPO434346  

379252 (2009 TA38)          Discovered 2009-Oct-14 by CSS at Catalina
Reference: Last Updated: 2013-11-20

[ show close-approach data ]
Ephemeris | Orbit Diagram | Orbital Elements | Mission Design | Physical Parameters | Discovery Circumstances | Close-Approach Data ]
ABOUT SSD CREDITS/AWARDS PRIVACY/COPYRIGHT GLOSSARY LINKS
FirstGov 2020-Apr-06 11:57 UT
(server date/time)  
NASA Home Page
Site Manager:   Ryan S. Park
Webmaster  Alan B. Chamberlin